Total_Precipitation_Accumulation
0.00 0.00 0.00 0.00 0.00 0.00 0.00 0.01 0.03 0.06 0.07 0.08 0.12 0.11 0.14 0.24 0.51 1.03 0.58 0.30 0.16 0.06 0.02 0.02 0.02 0.02 0.05 0.07 0.11 0.11 0.10 0.12 0.12 0.13 0.13 0.10 0.08 0.07 0.07 0.07 0.11 0.16 0.17 0.16 0.13 0.11 0.11 0.11 0.09
0.00 0.00 0.00 0.00 0.00 0.00 0.00 0.01 0.04 0.06 0.07 0.09 0.16 0.15 0.14 0.20 0.25 0.20 0.23 0.22 0.14 0.06 0.03 0.02 0.03 0.03 0.04 0.05 0.09 0.14 0.12 0.11 0.11 0.11 0.10 0.09 0.08 0.08 0.07 0.08 0.11 0.14 0.13 0.10 0.08 0.07 0.07 0.08 0.07
0.00 0.00 0.00 0.00 0.00 0.00 0.02 0.04 0.07 0.07 0.06 0.11 0.26 0.39 0.35 0.34 0.37 0.25 0.20 0.14 0.10 0.05 0.03 0.03 0.04 0.05 0.06 0.06 0.06 0.12 0.15 0.14 0.14 0.13 0.12 0.12 0.11 0.10 0.09 0.10 0.12 0.12 0.12 0.13 0.13 0.10 0.08 0.07 0.07
0.00 0.00 0.00 0.00 0.00 0.00 0.02 0.05 0.08 0.07 0.08 0.11 0.22 0.46 0.40 0.34 0.37 0.35 0.21 0.16 0.14 0.09 0.05 0.04 0.05 0.07 0.09 0.08 0.08 0.11 0.14 0.16 0.17 0.16 0.15 0.14 0.13 0.12 0.10 0.11 0.11 0.12 0.13 0.16 0.18 0.14 0.08 0.07 0.07
0.00 0.00 0.00 0.00 0.00 0.01 0.01 0.04 0.07 0.08 0.11 0.16 0.20 0.43 0.51 0.40 0.43 0.55 0.45 0.30 0.24 0.18 0.14 0.09 0.09 0.08 0.10 0.12 0.13 0.15 0.14 0.16 0.19 0.19 0.17 0.15 0.15 0.13 0.13 0.13 0.11 0.14 0.17 0.19 0.16 0.10 0.06 0.06 0.07
0.00 0.00 0.00 0.00 0.00 0.01 0.02 0.03 0.06 0.09 0.12 0.25 0.28 0.57 0.89 0.79 0.72 0.80 0.77 0.47 0.34 0.26 0.21 0.17 0.15 0.12 0.13 0.17 0.18 0.21 0.23 0.22 0.22 0.21 0.18 0.16 0.14 0.14 0.17 0.16 0.15 0.18 0.22 0.21 0.12 0.06 0.04 0.04 0.05
0.00 0.00 0.00 0.00 0.01 0.02 0.03 0.05 0.07 0.11 0.21 0.34 0.43 0.80 1.05 1.06 1.06 0.87 0.82 0.65 0.37 0.33 0.33 0.31 0.23 0.20 0.21 0.24 0.22 0.24 0.28 0.27 0.23 0.22 0.24 0.23 0.23 0.23 0.22 0.20 0.19 0.22 0.23 0.17 0.10 0.06 0.04 0.04 0.05
0.00 0.00 0.00 0.00 0.01 0.02 0.04 0.06 0.09 0.15 0.26 0.39 0.55 0.94 1.23 1.19 1.06 0.94 0.80 0.80 0.57 0.49 0.50 0.51 0.52 0.44 0.30 0.28 0.30 0.30 0.35 0.34 0.27 0.23 0.24 0.26 0.24 0.22 0.21 0.18 0.19 0.19 0.18 0.14 0.11 0.09 0.07 0.05 0.04
0.00 0.00 0.00 0.00 0.00 0.02 0.05 0.07 0.11 0.18 0.32 0.51 0.52 0.69 1.08 0.93 1.03 1.27 1.11 1.01 0.85 0.70 0.67 0.59 0.65 0.64 0.45 0.37 0.33 0.34 0.38 0.38 0.28 0.23 0.23 0.24 0.33 0.37 0.31 0.23 0.24 0.20 0.18 0.17 0.14 0.10 0.08 0.06 0.04
0.00 0.00 0.00 0.00 0.00 0.02 0.06 0.10 0.17 0.22 0.23 0.39 0.52 0.55 0.75 0.91 0.98 1.17 1.41 1.24 1.07 0.92 0.88 0.81 0.67 0.60 0.56 0.44 0.41 0.44 0.42 0.42 0.35 0.34 0.29 0.35 0.61 0.73 0.58 0.57 0.42 0.32 0.27 0.22 0.19 0.14 0.10 0.07 0.06
0.00 0.00 0.00 0.00 0.01 0.03 0.06 0.10 0.16 0.26 0.36 0.51 0.69 0.75 0.78 0.93 1.16 1.25 1.56 1.46 1.35 1.25 1.04 1.09 0.95 0.77 0.87 0.88 0.72 0.66 0.63 0.63 0.58 0.70 0.68 0.72 0.84 0.81 0.80 0.89 0.66 0.52 0.43 0.39 0.37 0.22 0.18 0.16 0.17
0.00 0.00 0.00 0.00 0.01 0.02 0.03 0.05 0.16 0.30 0.65 0.79 1.06 1.25 1.21 1.11 1.37 1.44 1.76 1.68 1.65 1.62 1.40 1.30 1.28 1.12 1.17 1.37 1.22 0.94 0.86 0.89 0.89 0.98 0.88 1.00 1.13 1.10 1.07 1.15 0.95 0.84 0.80 0.83 0.73 0.56 0.45 0.40 0.32
0.00 0.00 0.00 0.00 0.01 0.01 0.02 0.06 0.14 0.29 0.53 0.66 1.00 1.34 1.29 1.13 1.15 1.32 1.91 1.74 1.71 1.76 1.67 1.43 1.48 1.42 1.46 1.63 1.49 1.26 1.20 1.12 1.13 1.28 1.17 1.19 1.25 1.28 1.35 1.24 1.17 1.07 1.05 1.04 0.92 0.85 0.79 0.70 0.63
0.00 0.00 0.00 0.00 0.00 0.02 0.04 0.09 0.12 0.20 0.24 0.33 0.59 0.82 0.85 0.90 0.97 1.09 1.45 1.53 1.48 1.55 1.65 1.73 1.70 1.72 1.56 1.60 1.57 1.42 1.28 1.30 1.28 1.33 1.31 1.25 1.29 1.48 1.52 1.48 1.42 1.37 1.38 1.46 1.30 1.10 1.10 0.98 0.95
0.00 0.00 0.00 0.01 0.02 0.05 0.05 0.13 0.21 0.31 0.24 0.32 0.42 0.41 0.57 0.70 0.91 1.13 1.28 1.34 1.41 1.45 1.56 1.71 1.75 1.79 1.74 1.70 1.71 1.67 1.56 1.50 1.53 1.61 1.66 1.51 1.43 1.63 1.68 1.80 1.76 1.69 1.67 1.70 1.66 1.50 1.47 1.36 1.29
0.00 0.00 0.01 0.02 0.03 0.04 0.05 0.19 0.33 0.36 0.32 0.25 0.25 0.24 0.36 0.58 0.77 0.91 0.98 1.15 1.20 1.22 1.37 1.45 1.58 1.66 1.85 1.96 2.08 1.92 1.93 1.90 1.89 1.78 1.77 1.66 1.63 1.77 1.91 1.99 1.99 1.97 1.92 2.02 2.07 1.99 1.79 1.69 1.57
0.00 0.01 0.02 0.04 0.02 0.03 0.05 0.21 0.36 0.29 0.31 0.28 0.23 0.20 0.26 0.43 0.57 0.64 0.72 0.87 0.98 1.05 1.33 1.47 1.58 1.76 1.87 2.00 2.23 2.24 2.32 2.29 2.24 2.20 2.09 2.13 2.20 2.13 2.18 2.27 2.34 2.37 2.41 2.43 2.34 2.37 2.10 2.04 1.95
0.03 0.03 0.06 0.04 0.03 0.03 0.07 0.18 0.28 0.32 0.35 0.36 0.37 0.33 0.32 0.39 0.55 0.60 0.64 0.80 0.92 1.08 1.35 1.58 1.75 1.98 2.24 2.30 2.47 2.45 2.63 2.79 2.84 2.95 2.87 2.72 2.75 2.75 2.83 2.83 2.85 2.82 2.87 2.75 2.69 2.66 2.44 2.27 2.24
0.04 0.04 0.08 0.06 0.05 0.06 0.10 0.23 0.34 0.44 0.54 0.55 0.49 0.42 0.42 0.45 0.53 0.65 0.81 1.04 1.31 1.49 1.54 1.66 1.80 2.00 2.20 2.51 2.86 3.04 3.13 3.36 3.50 3.60 3.74 3.70 3.64 3.72 3.75 3.65 3.55 3.39 3.24 3.09 2.98 2.80 2.63 2.41 2.30
0.01 0.04 0.07 0.07 0.08 0.11 0.18 0.31 0.43 0.49 0.54 0.61 0.60 0.56 0.51 0.55 0.63 0.89 1.12 1.47 1.66 1.72 1.72 1.80 1.90 2.16 2.44 2.81 3.26 3.72 3.93 4.12 4.15 4.19 4.39 4.48 4.49 4.65 4.75 4.62 4.41 4.19 3.81 3.38 3.06 2.85 2.71 2.48 2.41
0.01 0.03 0.05 0.08 0.08 0.13 0.27 0.49 0.63 0.60 0.65 0.69 0.72 0.83 0.77 0.79 0.93 1.13 1.33 1.44 1.62 1.73 1.82 1.92 2.21 2.64 3.09 3.55 4.05 4.51 4.83 4.92 4.87 4.59 4.66 4.79 4.77 4.84 5.00 4.96 4.70 4.33 3.74 3.21 3.01 2.90 2.76 2.61 2.51
0.02 0.02 0.03 0.05 0.07 0.15 0.23 0.54 0.84 0.85 0.86 0.79 0.82 0.91 0.86 0.88 1.00 1.12 1.30 1.49 1.58 1.72 1.90 2.01 2.33 2.90 3.39 3.86 4.51 5.03 5.35 5.54 5.65 5.42 5.11 4.95 4.79 4.66 4.58 4.46 4.06 3.63 3.27 2.98 2.85 2.81 2.61 2.57 2.47
0.02 0.01 0.02 0.03 0.05 0.12 0.17 0.41 0.91 1.04 1.10 1.02 0.94 0.96 0.85 0.76 0.81 0.94 1.05 1.35 1.59 1.66 1.71 1.81 2.21 2.80 3.54 4.27 4.81 5.28 5.66 5.81 5.79 5.45 5.06 4.66 4.32 3.92 3.58 3.25 2.99 2.85 2.65 2.44 2.34 2.31 2.25 2.12 2.03
0.01 0.01 0.01 0.03 0.07 0.16 0.18 0.35 0.91 1.27 1.49 1.52 1.19 0.98 0.85 0.75 0.71 0.72 0.81 1.02 1.32 1.39 1.55 1.79 2.13 2.82 3.59 4.19 4.70 5.07 5.40 5.44 5.18 4.77 4.33 4.03 3.64 3.19 2.77 2.57 2.35 2.20 2.02 1.80 1.68 1.66 1.69 1.75 1.80
0.02 0.03 0.14 0.25 0.30 0.29 0.25 0.43 0.99 1.26 1.25 1.20 1.12 1.03 0.93 0.76 0.69 0.68 0.71 0.83 1.05 1.22 1.50 1.87 2.25 2.78 3.23 3.74 4.17 4.41 4.59 4.64 4.58 4.33 3.98 3.72 3.31 2.88 2.45 2.08 1.89 1.67 1.49 1.39 1.35 1.32 1.31 1.37 1.47
0.02 0.05 0.25 0.38 0.40 0.43 0.49 0.81 1.31 1.18 0.96 0.94 0.98 0.92 0.81 0.78 0.76 0.82 0.87 0.95 1.05 1.16 1.35 1.69 2.03 2.44 2.67 2.91 3.24 3.46 3.59 3.62 3.53 3.38 3.13 2.85 2.56 2.30 1.99 1.59 1.28 1.10 0.98 0.93 0.95 1.00 1.06 1.10 1.14
0.04 0.07 0.13 0.17 0.23 0.44 0.77 1.18 1.64 1.59 1.13 0.95 0.97 0.90 0.79 0.75 0.74 0.84 0.90 0.93 0.98 1.03 1.19 1.35 1.53 1.80 2.07 2.31 2.44 2.54 2.59 2.50 2.43 2.27 2.06 1.87 1.70 1.52 1.30 1.08 0.93 0.83 0.78 0.74 0.71 0.72 0.76 0.82 0.88
0.06 0.08 0.10 0.17 0.35 0.63 0.86 1.34 1.93 1.96 1.54 1.23 1.12 1.02 0.86 0.76 0.76 0.83 0.86 0.86 0.84 0.84 0.95 1.06 1.21 1.36 1.52 1.66 1.71 1.64 1.63 1.63 1.49 1.37 1.28 1.14 1.00 0.90 0.82 0.73 0.70 0.67 0.60 0.57 0.58 0.56 0.57 0.67 0.70
0.08 0.09 0.14 0.22 0.27 0.60 1.02 1.59 1.91 2.14 2.02 1.67 1.25 1.00 0.90 0.86 0.82 0.82 0.79 0.76 0.71 0.67 0.72 0.79 0.87 1.02 1.12 1.16 1.18 1.09 1.03 0.96 0.89 0.81 0.80 0.73 0.67 0.65 0.62 0.56 0.54 0.54 0.54 0.52 0.50 0.50 0.48 0.53 0.65
0.09 0.11 0.14 0.28 0.34 0.42 0.82 1.74 2.02 2.34 2.26 1.93 1.44 1.09 0.98 0.94 0.86 0.76 0.69 0.65 0.63 0.61 0.60 0.63 0.70 0.75 0.76 0.75 0.72 0.70 0.65 0.62 0.60 0.57 0.56 0.58 0.56 0.53 0.52 0.49 0.48 0.49 0.51 0.53 0.51 0.51 0.51 0.52 0.57